This is the latest recevied weather packets stored in our database for station/object R2AKT-13. If no packets are shown the sender has not sent any weather packets the latest 10 day(s).
| Time | Temp. | Humidity | Pressure | Rain* | Wind** | Luminosity | Snow |
|---|---|---|---|---|---|---|---|
| 1788352496 | 18.89° C | 61% | 987.2 hPa | - | 0.89 m/s, 227° | - | - |
| 1788351911 | 20° C | 58% | 987.1 hPa | - | 0.89 m/s, 247° | - | - |
| 1788351351 | 19.44° C | 61% | 986.9 hPa | - | 0.89 m/s, 250° | - | - |
| 1788350856 | 19.44° C | 61% | 987.4 hPa | - | 0.89 m/s, 217° | - | - |
| 1788350296 | 20° C | 59% | 987.3 hPa | - | 1.34 m/s, 240° | - | - |
| 1788349761 | 20° C | 58% | 987.2 hPa | - | 1.34 m/s, 212° | - | - |
| 1788349191 | 20° C | 58% | 987.4 hPa | - | 0.89 m/s, 261° | - | - |
| 1788348711 | 19.44° C | 61% | 987.4 hPa | - | 2.24 m/s, 215° | - | - |
| 1788348156 | 19.44° C | 59% | 987.4 hPa | - | 1.34 m/s, 232° | - | - |
| 1788347621 | 20° C | 56% | 987.2 hPa | - | 1.34 m/s, 200° | - | - |
| 1788347116 | 20° C | 58% | 987.3 hPa | - | 1.79 m/s, 226° | - | - |
| 1788346604 | 19.44° C | 62% | 987.3 hPa | - | 1.34 m/s, 225° | - | - |
| 1788346101 | 19.44° C | 61% | 987.3 hPa | - | 1.34 m/s, 209° | - | - |
| 1788345605 | 19.44° C | 61% | 987.3 hPa | - | 1.34 m/s, 247° | - | - |
| 1788345064 | 20° C | 59% | 987.3 hPa | - | 0.45 m/s, 259° | - | - |
| 1788344481 | 20° C | 59% | 987.2 hPa | - | 2.24 m/s, 216° | - | - |
| 1788343971 | 20° C | 60% | 987.1 hPa | - | 1.79 m/s, 194° | - | - |
| 1788343476 | 19.44° C | 61% | 987.1 hPa | - | 1.79 m/s, 222° | - | - |
| 1788342971 | 19.44° C | 62% | 987.1 hPa | - | 1.79 m/s, 210° | - | - |
| 1788342485 | 19.44° C | 61% | 987.1 hPa | - | 3.13 m/s, 198° | - | - |
| 1788341936 | 20° C | 60% | 986.8 hPa | - | 3.58 m/s, 192° | - | - |
| 1788341391 | 20° C | 59% | 986.9 hPa | - | 1.79 m/s, 195° | - | - |
| 1788340901 | 20° C | 59% | 986.9 hPa | - | 2.68 m/s, 185° | - | - |
| 1788340381 | 20° C | 59% | 986.9 hPa | - | 3.13 m/s, 195° | - | - |
| 1788339841 | 20° C | 61% | 987.1 hPa | - | 1.79 m/s, 184° | - | - |
* Rain since midnight (hover to see other rain measurements)
** Current wind speed in m/s (hover to see current wind gust speed)